{"data":{"norad_id":37834,"epoch":"2026-05-25T02:53:20.229792Z","epoch_age_seconds":67757,"freshness":"FRESH","line1":"1 37834U 11056A   26145.12037303  .00000050  00000+0  00000+0 0  9998","line2":"2 37834   0.0179 324.2360 0002037 104.4311  37.3752  1.00271909 53587","mean_motion":1.00271909,"eccentricity":0.0002037,"inclination_deg":0.0179,"raan_deg":324.236,"arg_perigee_deg":104.4311,"mean_anomaly_deg":37.3752,"bstar":0,"rev_number":5358,"period_min":1436.0951280981,"perigee_km":35777.971250706,"apogee_km":35795.149148345,"semimajor_km":42164.697199525,"source":"CELESTRAK","updated_at":"2026-05-25T13:38:14.330880Z"}}